User: anonymous   Login
Location: Albany
(35.0000°S, 118.0000°E)
Time: 09:31:06
(UTC-04:00)
Language:

JAS-1B - Orbit

View from above orbital plane
View from above orbital plane
View from above satellite
View from above satellite

Ground track
Ground track

The orbit data is extracted from the following two-line orbital elements,

1 20480U 90013C   18170.88208379 -.00000044 +00000-0 -17151-4 0  9998
2 20480 099.0589 240.6294 0539334 278.6403 075.3981 12.83418570328847
Epoch (UTC): 19 June 2018 21:10:12
Eccentricity: 0.0539334
inclination: 99.0589°
perigee height: 912 km
apogee height: 1743 km
right ascension of ascending node: 240.6294°
argument of perigee: 278.6403°
revolutions per day: 12.83418570
mean anomaly at epoch: 75.3981°
orbit number at epoch: 32884

The dashed part of the orbit path shows where the satellite is in the earth's shadow,  

DLR